Location: Meadowbank Aerodrome
(65.0250°N, 96.0705°W)
Time: 16:43:58
(UTC-05:00)

Cosmos 2221 - Visible Passes

Search period start: 31 August 2016 00:00
Search period end: 10 September 2016 00:00
Orbit: 595 x 617 km, 82.5° (Epoch: 30 August)

Date Brightness Start Highest point End Pass type
(mag) Time Alt. Az. Time Alt. Az. Time Alt. Az.
31 Aug 3.8 00:44:34 22° SE 00:46:25 30° E 00:50:17 10° NNE visible
31 Aug 2.7 02:21:26 27° SW 02:23:46 67° WNW 02:28:12 10° NNE visible
31 Aug 4.4 03:58:48 10° W 04:02:12 21° NW 04:05:36 10° N visible
31 Aug 4.9 23:21:56 10° E 23:22:59 11° ENE 23:24:01 10° ENE visible
01 Sep 3.3 00:57:45 28° SE 00:59:30 41° E 01:03:38 10° NNE visible
01 Sep 3.1 02:34:37 23° SW 02:37:05 50° WNW 02:41:24 10° NNE visible
01 Sep 4.7 04:12:44 10° W 04:15:44 17° NW 04:18:43 10° N visible
01 Sep 4.7 23:34:03 12° ESE 23:35:52 14° ENE 23:38:15 10° NE visible
02 Sep 2.8 01:10:55 33° SSE 01:12:37 55° E 01:16:56 10° NNE visible
02 Sep 3.6 02:47:48 19° WSW 02:50:26 38° WNW 02:54:35 10° N visible
02 Sep 4.9 04:26:47 10° WNW 04:29:18 15° NW 04:31:49 10° N visible
02 Sep 4.3 23:47:13 16° ESE 23:48:49 19° E 23:51:55 10° NE visible
03 Sep 2.5 01:24:05 37° S 01:25:47 75° ESE 01:30:12 10° NNE visible
03 Sep 4.0 03:00:58 16° WSW 03:03:50 30° NW 03:07:46 10° N visible
03 Sep 5.0 04:40:57 10° NW 04:42:54 13° NNW 04:44:51 10° N visible
04 Sep 4.0 00:00:23 21° ESE 00:01:49 25° E 00:05:25 10° NNE visible
04 Sep 2.5 01:37:15 36° SSW 01:39:00 81° WNW 01:43:27 10° NNE visible
04 Sep 4.3 03:14:08 12° W 03:17:17 24° NW 03:20:55 10° N visible
04 Sep 5.2 04:55:20 10° NW 04:56:32 11° NNW 04:57:44 10° N visible
05 Sep 3.5 00:13:32 27° SE 00:14:51 33° E 00:18:49 10° NNE visible
05 Sep 2.9 01:50:24 32° SW 01:52:17 61° WNW 01:56:40 10° NNE visible
05 Sep 4.6 03:27:32 10° W 03:30:47 20° NW 03:34:03 10° N visible
05 Sep 4.8 22:49:48 10° E 22:51:21 12° ENE 22:52:58 10° NE visible
06 Sep 3.1 00:26:41 35° SE 00:27:56 45° E 00:32:08 10° NNE visible
06 Sep 3.3 02:03:33 26° WSW 02:05:36 45° WNW 02:09:52 10° NNE visible
06 Sep 4.9 03:41:30 10° WNW 03:44:19 16° NW 03:47:09 10° N visible
06 Sep 4.4 23:02:56 14° E 23:04:16 16° ENE 23:06:54 10° NE visible
07 Sep 2.7 00:39:49 42° SSE 00:41:05 61° E 00:45:26 10° NNE visible
07 Sep 3.8 02:16:41 21° WSW 02:18:59 35° WNW 02:23:03 10° N visible
07 Sep 5.0 03:55:34 10° WNW 03:57:54 14° NNW 04:00:14 10° N visible
07 Sep 4.1 23:16:04 19° ESE 23:17:13 21° E 23:20:30 10° NE visible
08 Sep 2.5 00:52:57 45° S 00:54:16 83° ESE 00:58:41 10° NNE visible
08 Sep 4.2 02:29:50 17° W 02:32:23 28° NW 02:36:12 10° N visible
08 Sep 5.1 04:09:48 10° NW 04:11:31 12° NNW 04:13:13 10° N visible
08 Sep 3.7 23:29:12 25° ESE 23:30:13 27° E 23:33:57 10° NNE visible
09 Sep 2.6 01:06:04 42° SW 01:07:30 74° WNW 01:11:55 10° NNE visible
09 Sep 4.5 02:42:57 13° W 02:45:51 22° NW 02:49:21 10° N visible
09 Sep 5.3 04:24:21 10° NNW 04:25:10 10° NNW 04:25:59 10° N visible
09 Sep 3.3 23:42:19 32° ESE 23:43:17 36° E 23:47:19 10° NNE visible
